Milford, UT

1:49 AM MST on February 10, 2016 (GMT -0700)
Milford Municipal

Weather History for KMLF - January, 2013

Change the Weather History Date:

Saturday, January 19, 2013

  Actual Average (KCDC) Record (KCDC)
Temperature  
Mean Temperature 4 °F 29 °F  
Max Temperature 17 °F 42 °F 65 °F (1994)
Min Temperature -9 °F 17 °F -13 °F (1949)
Degree Days  
Heating Degree Days 61 36  
Month to date heating degree days 691  
Since 1 July heating degree days 3253  
Cooling Degree Days 0 0  
Month to date cooling degree days 0  
Year to date cooling degree days 0  
Moisture  
Dew Point -7 °F    
Average Humidity 78    
Maximum Humidity 92    
Minimum Humidity 55    
Precipitation  
Precipitation 0.00 in 0.03 in 0.55 in (1980)
Month to date precipitation 0.54  
Year to date precipitation 0.54  
Sea Level Pressure  
Sea Level Pressure 30.64 in    
Wind  
Wind Speed 3 mph (SSE)    
Max Wind Speed 9 mph    
Max Gust Speed -    
Visibility 6 miles    
Events Fog , Snow    
T = Trace of Precipitation, MM = Missing Value Source: NWS Daily Summary

Daily Weather History Graph

Daily Weather History Graph

Search for Another Location

Airport or City:

Trip Planner

Search our weather history database for the weather conditions in past years. The results will help you decide how hot, cold, wet, or windy it might be!

Date:

Astronomy

Jan. 19, 2013 Rise Set
Actual Time 7:46 AM MST 5:40 PM MST
Civil Twilight 7:17 AM MST 6:08 PM MST
Nautical Twilight 6:45 AM MST 6:41 PM MST
Astronomical Twilight 6:13 AM MST 7:12 PM MST
Moon 12:07 PM MST (1/19) 1:25 AM MST (1/19)
Length of Visible Light 10h 51m
Length of Day
9h 54m
First Quarter, 58% of the Moon is Illuminated
Jan 19
First Quarter
Jan 26
Full
Feb 3
Last Quarter
Feb 10
New
Feb 17
First Quarter

Hourly Weather History & Observations

Time (MST) Temp. Windchill Dew Point Humidity Pressure Visibility Wind Dir Wind Speed Gust Speed Precip Events Conditions
12:28 AM -7.6 °F - -13.0 °F 77% 30.43 in 4.0 mi Calm Calm - N/A   Haze
12:52 AM -7.1 °F -18.1 °F -11.9 °F 79% 30.71 in 9.0 mi SSW 4.6 mph - N/A   Scattered Clouds
1:09 AM -7.6 °F -18.8 °F -13.0 °F 77% 30.43 in 9.0 mi South 4.6 mph - N/A   Mostly Cloudy
1:30 AM -7.6 °F - -13.0 °F 77% 30.42 in 8.0 mi Calm Calm - N/A   Scattered Clouds
1:52 AM -8.0 °F -16.9 °F -14.1 °F 75% 30.71 in 10.0 mi WSW 3.5 mph - N/A   Clear
2:52 AM -9.0 °F -20.4 °F -13.0 °F 83% 30.71 in 9.0 mi South 4.6 mph - N/A   Clear
3:52 AM -9.0 °F -20.4 °F -15.0 °F 75% 30.71 in 10.0 mi NNW 4.6 mph - N/A   Mostly Cloudy
4:28 AM -9.4 °F - -14.8 °F 77% 30.44 in 3.0 mi Calm Calm - N/A   Overcast
4:52 AM -7.1 °F - -9.9 °F 87% 30.72 in 0.2 mi Calm Calm - N/A Fog Light Freezing Fog
5:15 AM -9.4 °F - -14.8 °F 77% 30.45 in 7.0 mi Calm Calm - N/A   Overcast
5:29 AM -9.4 °F -20.9 °F -11.2 °F 92% 30.45 in 1.0 mi South 4.6 mph - N/A   Mist
5:36 AM -9.4 °F -20.9 °F -13.0 °F 84% 30.46 in 4.0 mi South 4.6 mph - N/A   Overcast
5:52 AM -9.0 °F -18.2 °F -11.0 °F 91% 30.78 in 0.5 mi SSW 3.5 mph - N/A Fog Light Freezing Fog
6:17 AM -7.6 °F -18.8 °F -11.2 °F 84% 30.46 in 1.0 mi SSW 4.6 mph - N/A   Mist
6:23 AM -7.6 °F -18.8 °F -11.2 °F 84% 30.46 in 0.8 mi SSW 4.6 mph - N/A   Mist
6:52 AM -8.0 °F -19.2 °F -11.0 °F 86% 30.79 in 0.5 mi South 4.6 mph - N/A Fog Light Freezing Fog
7:01 AM -9.4 °F -20.9 °F -13.0 °F 84% 30.47 in 1.8 mi South 4.6 mph - N/A   Overcast
7:08 AM -9.4 °F -20.9 °F -13.0 °F 84% 30.47 in 1.2 mi South 4.6 mph - N/A   Overcast
7:16 AM -9.4 °F -18.6 °F -11.2 °F 92% 30.47 in 0.8 mi South 3.5 mph - N/A   Mist
7:32 AM -9.4 °F -20.9 °F -14.8 °F 77% 30.47 in 1.5 mi WSW 4.6 mph - N/A   Haze
7:45 AM -9.4 °F -20.9 °F -13.0 °F 84% 30.47 in 2.0 mi West 4.6 mph - N/A   Overcast
7:52 AM -9.0 °F - -14.1 °F 79% 30.82 in 5.0 mi Calm Calm - N/A   Haze
8:35 AM -7.6 °F -16.5 °F -11.2 °F 84% 30.49 in 1.5 mi East 3.5 mph - N/A   Scattered Clouds
8:42 AM -9.4 °F -20.9 °F -13.0 °F 84% 30.49 in 0.5 mi East 4.6 mph - N/A Fog Light Freezing Fog
8:52 AM -7.1 °F - -11.0 °F 83% 30.84 in 2.0 mi Calm Calm - N/A   Mostly Cloudy
9:09 AM -5.8 °F - -11.2 °F 77% 30.50 in 3.0 mi Calm Calm - N/A   Haze
9:40 AM -2.2 °F - -7.6 °F 78% 30.51 in 8.0 mi Calm Calm - N/A   Mostly Cloudy
9:52 AM -2.0 °F - -6.0 °F 83% 30.85 in 7.0 mi Calm Calm - N/A   Mostly Cloudy
10:10 AM -0.4 °F - -2.2 °F 92% 30.53 in 6.0 mi Calm Calm - N/A   Scattered Clouds
10:52 AM 1.9 °F - -0.9 °F 88% 30.84 in 7.0 mi Calm Calm - N/A   Clear
11:52 AM 10.9 °F 1.4 °F 3.0 °F 70% 30.78 in 9.0 mi NE 5.8 mph - 0.00 in Snow Light Snow
12:52 PM 12.0 °F -0.4 °F 5.0 °F 73% 30.74 in 10.0 mi North 9.2 mph - 0.00 in   Clear
1:52 PM 14.0 °F 2.9 °F 6.1 °F 71% 30.72 in 10.0 mi North 8.1 mph - N/A   Clear
2:52 PM 16.0 °F 5.3 °F 7.0 °F 68% 30.70 in 10.0 mi NNE 8.1 mph - N/A   Clear
3:52 PM 16.0 °F 5.3 °F 7.0 °F 68% 30.69 in 10.0 mi NNE 8.1 mph - N/A   Clear
4:52 PM 15.1 °F 3.3 °F 6.1 °F 68% 30.68 in 10.0 mi North 9.2 mph - N/A   Clear
5:52 PM 9.0 °F -2.2 °F 3.0 °F 77% 30.71 in 10.0 mi NNE 6.9 mph - N/A   Clear
6:52 PM 3.9 °F -9.4 °F -0.9 °F 80% 30.74 in 8.0 mi North 8.1 mph - N/A   Clear
7:52 PM 5.0 °F -4.1 °F -0.0 °F 80% 30.75 in 8.0 mi North 4.6 mph - N/A   Clear
8:52 PM 1.0 °F -6.7 °F -2.9 °F 83% 30.77 in 6.0 mi ENE 3.5 mph - N/A   Clear
9:52 PM -0.9 °F - -6.0 °F 79% 30.76 in 5.0 mi Calm Calm - N/A   Haze
10:00 PM - - - N/A% - - North - - N/A   Unknown
10:52 PM 1.0 °F -8.7 °F -4.0 °F 79% 30.73 in 6.0 mi NE 4.6 mph - N/A   Haze
11:52 PM -0.0 °F -13.0 °F -5.1 °F 79% 30.69 in 6.0 mi NNW 6.9 mph - N/A   Haze